[[{"header":{"parameterUnit":"m.s-1","parameterCategory":1,"la1":30.2991,"la2":30.254,"lo1":-89.0895,"lo2":-89.0444,"dy":0.0017,"dx":0.0017,"nx":28,"ny":28,"refTime":"2023-09-16T03:00:00:Z","depth":0,"parameterNumber":2,"parameterNumberName":"U-component_of_WINDS"},"data":[0,0,0,0,0,0,0,0,0,0,0,0,0,0,0,0,0,0,0,0,0,0,0,0,0,0,0,0,0,0,0,0,0,0,0,0,0,0,0,0,0,0,0,0,0,0,0,0,0,0,0,0,0,0,0,0,0,0,0.3188,0.3189,0,0.3248,0.3248,0.3249,0.3255,0.3255,0.3254,0.3253,0.3319,0.3321,0.3324,0,0,0,0,0,0,0,0,0,0,0,0,0,0.3086,0.3088,0.3188,0.3189,0.319,0.3247,0.3248,0.3249,0.3255,0.3255,0.3254,0.3253,0.3318,0.3321,0.3324,0,0,0,0,0,0,0,0,0,0,0,0,0,0.3136,0.3088,0.3188,0.32,0.3201,0.3247,0.3248,0.3249,0.3255,0.3255,0.3254,0.3253,0.3317,0.3321,0.3324,0.3364,0,0,0.3335,0.3336,0,0,0,0,0,0,0,0,0.3133,0.314,0.3197,0.3199,0.3201,0.3243,0.3236,0.3288,0.3256,0.3235,0.3253,0.3252,0.3295,0.33,0.3313,0.3367,0.337,0.3335,0.3337,0.3339,0.334,0,0,0,0,0,0,0,0.313,0.3138,0.3212,0.3198,0.32,0.3204,0.321,0.3246,0.327,0.3237,0.3237,0.3244,0.3296,0.331,0.3315,0.3371,0.3335,0.3338,0.334,0.3342,0.3462,0.3463,0,0,0,0,0,0,0.3123,0.3135,0.321,0.3214,0.3164,0.3206,0.3213,0.323,0.3269,0.3274,0.3245,0.3244,0.3304,0.3311,0.3317,0.3367,0.3339,0.3342,0.3344,0.3461,0.3462,0.3463,0,0,0,0,0,0,0.3121,0.313,0.3208,0.3174,0.3184,0.3209,0.3228,0.3232,0.3246,0.3275,0.328,0.3255,0.3304,0.3312,0.3352,0.337,0.3344,0.3347,0.3459,0.3461,0.3463,0.3467,0,0,0,0,0,0,0.3118,0.3129,0.3144,0.3174,0.3186,0.324,0.3229,0.3234,0.3252,0.3252,0.3286,0.3291,0.3304,0.3347,0.3356,0.3374,0.3349,0.3458,0.346,0.3462,0.3466,0.3469,0.3472,0,0,0,0,0,0.3115,0.3144,0.3144,0.3153,0.3204,0.3241,0.3248,0.3261,0.3253,0.3269,0.3287,0.329,0.3366,0.3351,0.3361,0.3381,0.3457,0.3459,0.3462,0.3464,0.3468,0.3472,0,0,0,0,0,0,0.3116,0.3148,0.3149,0.3188,0.3212,0.3242,0.3262,0.3265,0.3292,0.3291,0.3308,0.3316,0.3355,0.3372,0.3355,0.3422,0.3411,0.3415,0.3409,0.3413,0.3416,0.3412,0.3352,0,0,0,0,0,0.312,0.3146,0.3173,0.3206,0.3217,0.3237,0.3254,0.3262,0.3288,0.3298,0.332,0.3346,0.3376,0.3395,0.3425,0.3468,0.3476,0.3486,0.3489,0.3491,0.3496,0.3521,0.3526,0.3471,0.3471,0.3471,0,0,0.3131,0.3151,0.3167,0.3206,0.3225,0.3253,0.3246,0.3276,0.3297,0.3303,0.3342,0.3359,0.3389,0.3431,0.345,0.3446,0.3512,0.3495,0.3496,0.3499,0.3524,0.3529,0.3533,0.3473,0.3473,0.3472,0,0,0.3164,0.3182,0.3211,0.323,0.3258,0.3271,0.3278,0.3308,0.3319,0.3357,0.3363,0.3389,0.344,0.3462,0.348,0.3521,0.3524,0.353,0.3546,0.357,0.3574,0.3578,0.3594,0.3599,0.3534,0.3534,0.3534,0,0.3174,0.3214,0.3226,0.3255,0.3273,0.3278,0.3309,0.3327,0.3364,0.3377,0.3371,0.3435,0.3456,0.3503,0.3513,0.3527,0.3537,0.3527,0.3572,0.3576,0.358,0.3596,0.3601,0.3534,0.3534,0.3534,0.3534,0,0.3226,0.3254,0.3274,0.3308,0.3328,0.3358,0.3375,0.3395,0.3401,0.3415,0.3455,0.348,0.3515,0.3526,0.3533,0.3575,0.3571,0.3569,0.3558,0.3586,0.36,0.3606,0.3535,0.3535,0.3535,0.3534,0,0,0.3262,0.3301,0.3309,0.3325,0.3356,0.3379,0.341,0.3442,0.3458,0.3484,0.3511,0.3554,0.3551,0.3571,0.3581,0.3602,0.3634,0.3597,0.3598,0.3604,0.3683,0.3685,0.3692,0.3636,0.3637,0.3638,0.368,0,0.33,0.3353,0.3364,0.341,0.3437,0.3442,0.3469,0.3492,0.3507,0.3533,0.3549,0.358,0.3573,0.3586,0.3606,0.3625,0.365,0.3622,0.3663,0.3665,0.3656,0.3699,0.3702,0.3741,0.3686,0.3687,0.3688,0,0.3351,0.3376,0.3425,0.3453,0.3465,0.3488,0.3519,0.3543,0.357,0.3579,0.3601,0.3608,0.3642,0.3629,0.3676,0.3657,0.3674,0.3686,0.3688,0.3693,0.3679,0.3707,0.3754,0.376,0.3697,0.3696,0.3695,0,0.3374,0.342,0.3455,0.3469,0.3502,0.3519,0.3534,0.3559,0.3578,0.3605,0.3618,0.3649,0.3666,0.3691,0.3707,0.3696,0.3754,0.3742,0.3764,0.3763,0.3777,0.3776,0.3828,0.3786,0.3786,0.3786,0.3785,0,0.3416,0.3446,0.3466,0.3488,0.3522,0.3535,0.3569,0.3584,0.3607,0.3633,0.3639,0.3664,0.3683,0.3711,0.3724,0.3762,0.3769,0.3779,0.3782,0.3779,0.3778,0.3791,0.3789,0.3787,0.3787,0.3787,0.3786,0,0.3448,0.3463,0.3501,0.3529,0.3537,0.3561,0.3586,0.3608,0.3622,0.3655,0.3663,0.3686,0.3719,0.3737,0.3778,0.3787,0.383,0.3831,0.382,0.3822,0.3843,0.3841,0.3907,0.3917,0.3867,0.3867,0.3868,0,0.3474,0.3497,0.3527,0.3544,0.3559,0.3586,0.3605,0.3619,0.3638,0.367,0.3689,0.3722,0.3749,0.3802,0.3823,0.3855,0.3858,0.3879,0.3863,0.3859,0.386,0.3858,0.3861,0.3882,0.3882,0.3883,0.3883,0,0.3519,0.3525,0.3551,0.3579,0.3601,0.3625,0.3648,0.3662,0.368,0.3702,0.3734,0.3755,0.3797,0.383,0.3864,0.3881,0.3886,0.3887,0.3894,0.3892,0.3885,0.389,0.3829,0.3886,0.3886,0.3886,0.3885,0.3885,0.355,0.3571,0.3595,0.3624,0.3642,0.3664,0.3686,0.3702,0.3729,0.3763,0.377,0.3805,0.3832,0.3877,0.3895,0.3924,0.392,0.393,0.3933,0.3935,0.3937,0.3879,0.393,0.393,0.393,0.393,0.393,0,0.3597,0.3612,0.3638,0.367,0.3693,0.3692,0.3718,0.3738,0.3768,0.3792,0.3818,0.3856,0.3888,0.3912,0.3945,0.3963,0.3966,0.3972,0.3971,0.3975,0.3938,0.3929,0.3969,0.3969,0.3969,0.3969,0.3969,0.3969,0.3623,0.3659,0.3667,0.3713,0.3728,0.3761,0.3776,0.3797,0.3816,0.3858,0.3884,0.3898,0.3922,0.3957,0.3987,0.3993,0.4005,0.4011,0.4017,0.3982,0.3978,0.3974,0.3966,0.4013,0.4013,0.4053,0.4053,0.4053]},{"header":{"parameterUnit":"m.s-1","parameterCategory":1,"la1":30.2991,"la2":30.254,"lo1":-89.0895,"lo2":-89.0444,"dy":0.0017,"dx":0.0017,"nx":28,"ny":28,"refTime":"2023-09-16T03:00:00:Z","depth":0,"parameterNumber":3,"parameterNumberName":"V-component_of_WINDS"},"data":[0,0,0,0,0,0,0,0,0,0,0,0,0,0,0,0,0,0,0,0,0,0,0,0,0,0,0,0,0,0,0,0,0,0,0,0,0,0,0,0,0,0,0,0,0,0,0,0,0,0,0,0,0,0,0,0,0,0,0.8872,0.8871,0,0.879,0.8789,0.8788,0.874,0.874,0.874,0.874,0.8654,0.8652,0.865,0,0,0,0,0,0,0,0,0,0,0,0,0,0.8984,0.8982,0.8872,0.8871,0.887,0.879,0.8789,0.8788,0.874,0.874,0.874,0.874,0.8655,0.8652,0.865,0,0,0,0,0,0,0,0,0,0,0,0,0,0.8922,0.8981,0.8872,0.8837,0.8833,0.879,0.8789,0.8787,0.8741,0.874,0.874,0.874,0.8655,0.8652,0.8649,0.8635,0,0,0.8639,0.8638,0,0,0,0,0,0,0,0,0.8925,0.8918,0.8843,0.8839,0.8834,0.8775,0.8797,0.8736,0.8741,0.8775,0.874,0.874,0.8694,0.8688,0.8673,0.8631,0.8627,0.8639,0.8637,0.8636,0.8635,0,0,0,0,0,0,0,0.893,0.8921,0.8839,0.8842,0.8837,0.8824,0.8814,0.8785,0.8737,0.8772,0.8769,0.876,0.8692,0.8676,0.8671,0.8626,0.8639,0.8636,0.8634,0.8633,0.8564,0.8564,0,0,0,0,0,0,0.894,0.8925,0.8842,0.8837,0.888,0.8822,0.8812,0.8794,0.8738,0.8729,0.876,0.8758,0.8682,0.8674,0.8667,0.8645,0.8636,0.8633,0.8631,0.8564,0.8564,0.8564,0,0,0,0,0,0,0.8943,0.8933,0.8845,0.888,0.8867,0.882,0.8801,0.8793,0.8777,0.8728,0.8719,0.8753,0.8681,0.8672,0.8643,0.8641,0.8631,0.8629,0.8564,0.8564,0.8564,0.86,0,0,0,0,0,0,0.8946,0.8934,0.8929,0.888,0.8866,0.8823,0.8801,0.8791,0.8772,0.8768,0.8719,0.8711,0.868,0.8648,0.864,0.8637,0.8626,0.8564,0.8564,0.8564,0.8599,0.8602,0.8604,0,0,0,0,0,0.895,0.8943,0.8929,0.892,0.8859,0.8823,0.8815,0.8781,0.8772,0.8766,0.8734,0.8712,0.8643,0.8645,0.8635,0.8632,0.8564,0.8564,0.8564,0.8598,0.8601,0.8604,0,0,0,0,0,0,0.8994,0.8936,0.892,0.8897,0.8865,0.8815,0.8807,0.8786,0.8755,0.8753,0.8711,0.87,0.8674,0.865,0.8654,0.8613,0.8601,0.8599,0.863,0.8632,0.8635,0.8641,0.8623,0,0,0,0,0,0.9001,0.8977,0.8928,0.8912,0.8897,0.8855,0.8838,0.8814,0.8779,0.8765,0.8731,0.8697,0.8667,0.8649,0.8619,0.8595,0.8583,0.8588,0.859,0.8592,0.8591,0.8574,0.8575,0.8565,0.8565,0.8565,0,0,0.9015,0.898,0.8968,0.892,0.8893,0.8868,0.8844,0.8819,0.88,0.8761,0.8731,0.8705,0.8664,0.8637,0.8623,0.8616,0.8591,0.8593,0.8595,0.8592,0.8574,0.8576,0.8576,0.8565,0.8565,0.8565,0,0,0.9027,0.9,0.8983,0.8955,0.8914,0.8885,0.8881,0.8833,0.8814,0.8784,0.8753,0.8729,0.8679,0.8651,0.863,0.8629,0.8606,0.862,0.8632,0.8616,0.8617,0.8618,0.8615,0.8615,0.8619,0.8619,0.8619,0,0.905,0.9012,0.8976,0.8953,0.8931,0.8895,0.8876,0.8851,0.8802,0.8787,0.878,0.8715,0.8685,0.8649,0.8649,0.8634,0.8626,0.8625,0.862,0.862,0.862,0.8617,0.8617,0.8621,0.8621,0.862,0.862,0,0.9041,0.9015,0.9006,0.8959,0.8937,0.8916,0.8875,0.8856,0.8834,0.8806,0.8773,0.8736,0.8696,0.8686,0.8664,0.8647,0.8643,0.8629,0.8615,0.8624,0.862,0.8619,0.8623,0.8623,0.8622,0.8622,0,0,0.9079,0.9011,0.9009,0.8986,0.8936,0.8915,0.8891,0.8853,0.8837,0.8803,0.8781,0.8738,0.8724,0.87,0.8674,0.866,0.8659,0.8647,0.8645,0.8649,0.8635,0.8645,0.8645,0.8644,0.8644,0.8644,0.8637,0,0.9083,0.904,0.9006,0.8974,0.8949,0.8913,0.8892,0.8858,0.8831,0.8804,0.8773,0.8742,0.8727,0.8711,0.8696,0.8663,0.8655,0.8663,0.8621,0.862,0.8632,0.8643,0.8655,0.8651,0.8636,0.8636,0.8636,0,0.9083,0.905,0.9016,0.8967,0.8955,0.8937,0.8898,0.8873,0.8834,0.8814,0.8786,0.8759,0.873,0.872,0.8678,0.8684,0.8665,0.8646,0.8644,0.8639,0.8628,0.8636,0.8649,0.8648,0.8634,0.8634,0.8634,0,0.9111,0.906,0.9032,0.9014,0.8957,0.8944,0.8919,0.888,0.8858,0.8823,0.8808,0.8771,0.875,0.872,0.8683,0.8679,0.8644,0.8632,0.8626,0.8627,0.862,0.8621,0.8628,0.861,0.861,0.861,0.861,0,0.9119,0.9099,0.9044,0.9027,0.9003,0.8963,0.894,0.8912,0.8876,0.8852,0.8818,0.8796,0.8749,0.872,0.869,0.8659,0.865,0.8632,0.8624,0.8635,0.8637,0.8621,0.862,0.8609,0.8609,0.861,0.861,0,0.9147,0.911,0.9077,0.9025,0.9011,0.8996,0.895,0.8931,0.8901,0.8871,0.8861,0.8814,0.8778,0.8738,0.8689,0.8668,0.8639,0.8628,0.8652,0.8648,0.8644,0.8644,0.8641,0.8637,0.8622,0.8623,0.8623,0,0.9154,0.9137,0.9084,0.9065,0.9041,0.9012,0.8989,0.8949,0.8927,0.8879,0.8865,0.8827,0.8794,0.8738,0.8698,0.8659,0.8647,0.8648,0.8641,0.8651,0.8645,0.8646,0.8643,0.865,0.8651,0.8651,0.8651,0,0.9168,0.915,0.912,0.9082,0.9056,0.9024,0.8991,0.8977,0.893,0.8906,0.8869,0.8844,0.8793,0.8754,0.8711,0.8683,0.8659,0.8654,0.865,0.866,0.8674,0.8665,0.8657,0.8654,0.8654,0.8654,0.8653,0.8653,0.9185,0.9168,0.9127,0.9093,0.9064,0.9033,0.9012,0.8979,0.8948,0.8904,0.8882,0.8844,0.8802,0.8741,0.8715,0.8684,0.8676,0.8671,0.867,0.8669,0.8671,0.868,0.8676,0.8675,0.8675,0.8675,0.8675,0,0.9196,0.9168,0.9137,0.9092,0.9065,0.9045,0.9006,0.8984,0.8952,0.8916,0.8884,0.884,0.8802,0.8759,0.8718,0.8701,0.8689,0.8692,0.8692,0.8686,0.8681,0.8687,0.8702,0.8702,0.8702,0.8702,0.8702,0.8702,0.9199,0.9169,0.9146,0.91,0.9071,0.9035,0.9014,0.8985,0.8955,0.8908,0.8877,0.8849,0.8809,0.8765,0.8728,0.8716,0.8702,0.8708,0.8693,0.8689,0.8686,0.8684,0.869,0.8705,0.8705,0.87,0.87,0.87]}]]